Regional Weather Roundup
Issued by NWS

Home | Current Version | Previous Version | Graphics & Text | Print | Product List | Glossary On
Versions: 1 2 3 4 5 6 7 8 9 10 11 12 13 14 15 16 17 18 19 20 21 22 23 24 25 26 27 28
000
ASUS45 KBOU 220910
RWRCO

WEATHER ROUNDUP FOR COLORADO
NATIONAL WEATHER SERVICE DENVER/BOULDER CO
200 AM MST WED NOV 22 2017

NOTE: "FAIR" INDICATES FEW OR NO CLOUDS BELOW 12000 FEET WITH NO
SIGNIFICANT WEATHER AND/OR OBSTRUCTIONS TO VISIBILITY.

COZ001>005-013-030-031-221000-
...NORTHWEST COLORADO...

CITY           SKY/WX    TMP DP  RH WIND       PRES   REMARKS
CRAIG          CLOUDY    34  31  88 CALM      30.44R
HAYDEN         FAIR      36  32  85 CALM      30.45R
MEEKER         CLOUDY    37  32  82 SE5       30.44R
RABBIT EARS PA FOG      N/A N/A N/A W6        30.50R VSB 3/4
STEAMBOAT SPGS CLOUDY    34  33  97 CALM      30.44R
WALDEN         MOCLDY    30  27  86 CALM      30.43R
$$

COZ006>008-011-221000-
...WEST CENTRAL VALLEYS...

CITY           SKY/WX    TMP DP  RH WIND       PRES   REMARKS
GRAND JUNCTION FAIR      37  26  64 E3        30.41F
MONTROSE       FAIR      34  28  79 S9        30.46R WCI  27
EAGLE          FAIR      32  29  88 NE5       30.48R WCI  27
RIFLE          FAIR      32  30  92 SE5       30.45R WCI  27
DELTA          FAIR      36  27  69 NE5       30.44S
NUCLA          FAIR      36  27  69 SE6       30.46F
$$

COZ017>023-064>068-221000-
...SOUTHWEST COLORADO...

CITY           SKY/WX    TMP DP  RH WIND       PRES   REMARKS
DURANGO        FAIR      30  19  63 N5        30.40R WCI  25
CORTEZ         FAIR      33  25  72 E9        30.40R WCI  25
PAGOSA SPRINGS FAIR      32  22  67 CALM      30.43R
TELLURIDE      FAIR      34  24  66 SE6       30.53R WCI  29
WOLF CREEK PAS MOCLDY    32  10  40 CALM      30.61R
$$

COZ009-010-012-014-032>034-037-058>063-221000-
...CENTRAL COLORADO...

CITY           SKY/WX    TMP DP  RH WIND       PRES   REMARKS
ASPEN          FAIR      30  26  85 CALM      30.45R
BUENA VISTA    FAIR      38  25  59 NW5       30.39F
COPPER MTN     FAIR      28  21  74 MISG      30.52S
BERTHOUD PASS  CLOUDY    21  10  63 NW28G39   30.47R WCI   3
COTTONWOOD PAS FAIR      41  23  48 W9G20     30.43F
GUNNISON       FAIR      22  21  96 CALM      30.49R
KREMMLING      CLOUDY    37  34  87 CALM      30.46R
LEADVILLE      FAIR      24  21  88 N6        30.46S WCI  17
MONARCH PASS   FAIR      25  21  86 SW14      30.62F WCI  13
SALIDA         FAIR      41  26  55 NW13      30.45F
SUNLIGHT       FAIR      30  27  86 MISG      30.57R
WILKERSON PASS CLOUDY    34  12  40 NW6G29    30.49R WCI  29
$$

COZ069>075-221000-
...SAN LUIS VALLEY/SANGRE DE CRISTO MOUNTAINS...

CITY           SKY/WX    TMP DP  RH WIND       PRES   REMARKS
ALAMOSA        FAIR      28  20  71 W5        30.42R WCI  23
DEL NORTE      FAIR      37  19  47 S7        30.44F
LA VETA PASS   FAIR      32  23  69 SW30        N/A  WCI  18
SAGUACHE       FAIR      37  28  70 NW8       30.43S
$$

COZ035-036-038>040-221000-
...NORTHERN COLORADO FRONT RANGE...

CITY           SKY/WX    TMP DP  RH WIND       PRES   REMARKS
DENVER INTL AP MOCLDY    37  30  75 CALM      30.23F
DMNS CITY PARK   N/A     36  33  86 SE3       30.24F
AURORA         PTCLDY    40  32  71 S12       30.23F
FRONT RANGE AP FAIR      42  33  70 S9        30.23F
ERIE MUNI ARPT FAIR      31  29  93 CALM      30.29F
BOULDER MUN AP FAIR      34  32  93 CALM      30.24S
CENTENNIAL     FAIR      40  29  64 S12       30.23F
BROOMFIELD     FAIR      37  32  81 CALM      30.24F
FORT COLLINS   FAIR      33  31  92 CALM      30.24F
LONGMONT       FAIR      34  32  91 S3        30.25F
$$

COZ041-046-047-076>085-087-088-221000-
...PIKES PEAK/PALMER DIVIDE AND SOUTHERN FOOTHILLS...

CITY           SKY/WX    TMP DP  RH WIND       PRES   REMARKS
COLO. SPRINGS  MOCLDY    31  26  82 N8        30.32S WCI  23
A. F. ACADEMY  FAIR      27  26  96 N8        30.31S WCI  19
SCHRIEVER AFB  FAIR      33  26  77 CALM      30.32S
CHEYENNE MTN   MOCLDY    36  29  78 CALM      30.26R
ELLICOTT         N/A    N/A N/A N/A CALM      30.30S
FALCON         FAIR      31  27  83 W6        30.32S WCI  26
FORT CARSON    FAIR      32  29  87 N9        30.29F WCI  24
LIMON          FAIR      30  26  85 SE6       30.27F WCI  24
MONUMENT HILL  FAIR      32  28  86 SW8       30.30F WCI  25
CANON CITY     FAIR      45  32  61 MISG      30.29S
WALSENBURG     FAIR      32  30  93 CALM      30.31S
TRINIDAD       FAIR      37  27  67 SW13      30.31F
$$

COZ042>045-048>051-090-091-221000-
...NORTHEAST COLORADO...

CITY           SKY/WX    TMP DP  RH WIND       PRES   REMARKS
GREELEY ARPT   FAIR      31  29  92 CALM      30.25F
AKRON          FAIR      38  27  64 SW18      30.23F
BURLINGTON     FAIR      33  25  72 SW15      30.26F WCI  23
WRAY           NOT AVBL
YUMA           FAIR      34  28  80 SW8       30.23F WCI  27
STERLING       FAIR      30  27  86 S5        30.21F WCI  25
HOLYOKE        FAIR      34  28  80 S7        30.23S WCI  28
FORT MORGAN    FAIR      31  26  81 SW7       30.24F WCI  24
$$

COZ086-089-092>099-221000-
...SOUTHEAST COLORADO...

CITY           SKY/WX    TMP DP  RH WIND       PRES   REMARKS
PUEBLO         FAIR      29  26  89 CALM      30.30S
LA JUNTA       FAIR      31  25  78 N5        30.30F WCI  26
LAMAR          FAIR      24  18  77 NE3       30.30F
SPRINGFIELD      N/A     29  25  85 SW9       30.32F WCI  20
$$




USA.gov is the U.S. government's official web portal to all federal, state and local government web resources and services.